Lapse_Rate
5.0 4.7 4.5 4.6 4.2 4.1 4.1 3.9 4.1 4.0 5.0 6.1 6.2 6.2 6.4 6.0 5.7 5.6 6.2 7.3 8.1 8.0 7.8 7.6 7.7 7.8 7.2 6.9 6.1 5.6 5.7 5.9 5.7 6.2 6.1 6.3 6.1 5.9 6.0 6.4 6.6 6.2 6.1 5.6 5.7 5.7 5.7
4.9 4.6 4.5 4.5 4.3 4.3 4.1 4.0 4.2 4.1 5.3 6.3 6.5 6.4 6.4 6.3 5.7 5.7 5.9 6.5 7.0 7.7 8.0 7.9 7.8 7.6 7.5 7.2 6.4 5.8 5.9 6.1 5.6 6.5 6.3 6.4 6.1 6.0 6.1 6.7 6.5 6.4 6.3 6.3 5.8 5.4 5.5
4.9 4.8 4.5 4.5 4.2 4.3 4.1 4.2 4.2 4.1 5.3 6.3 6.6 6.5 6.5 6.5 6.3 5.7 6.0 6.2 6.3 7.2 7.7 8.3 8.0 7.8 7.7 7.3 6.7 6.2 5.7 5.7 5.7 6.9 6.4 6.4 6.2 5.9 6.3 6.7 6.6 6.5 6.5 6.1 5.9 5.3 5.3
5.0 4.9 4.5 4.4 4.4 4.4 4.3 4.4 4.4 4.4 5.4 6.4 6.6 6.9 6.5 6.5 6.4 5.8 5.8 5.9 6.2 6.6 7.6 8.1 8.1 8.0 7.8 7.4 6.6 5.9 5.7 5.5 5.9 6.6 6.7 6.7 6.3 6.0 6.4 6.4 6.7 6.5 6.4 5.9 5.5 5.6 5.4
5.1 4.8 4.6 4.5 4.4 4.4 4.5 4.4 4.5 4.5 5.5 6.5 6.7 6.9 6.8 6.7 6.4 6.1 6.0 5.8 6.0 6.2 6.7 7.5 7.8 7.7 7.6 7.3 7.0 5.8 5.6 5.5 6.3 6.4 6.5 6.4 6.3 5.9 5.9 6.2 6.4 6.2 6.3 6.3 6.6 6.3 6.3
5.1 4.9 4.7 4.5 4.4 4.5 4.6 4.4 4.4 4.7 5.5 6.4 6.8 6.8 6.7 6.7 6.6 6.3 6.3 6.1 6.0 6.1 6.3 6.9 7.5 7.4 7.2 7.4 7.3 6.4 6.1 5.6 5.9 6.0 6.1 6.5 6.1 5.8 6.0 6.1 5.4 5.8 5.8 6.3 6.7 6.6 6.6
5.1 5.0 4.7 4.6 4.4 4.2 4.5 4.4 4.4 4.8 5.4 6.0 6.6 6.9 6.8 6.6 6.7 6.3 6.0 6.1 6.1 5.9 6.1 6.4 6.7 7.2 7.1 7.0 7.1 6.5 6.1 5.7 5.7 5.9 6.1 6.6 6.1 5.7 6.1 5.9 6.1 6.4 6.6 6.5 6.4 6.4 6.3
5.1 5.0 4.8 4.5 4.4 4.2 4.5 4.5 4.4 4.6 4.8 5.6 6.4 6.6 6.8 6.7 6.6 6.4 6.1 6.0 6.0 5.8 5.8 6.2 6.5 7.0 7.3 6.9 6.9 6.5 6.1 5.8 5.6 6.0 6.3 6.3 6.2 6.2 6.2 6.1 6.3 6.5 6.8 6.8 6.7 6.9 6.8
5.1 5.0 4.9 4.5 4.4 4.2 4.4 4.5 4.4 4.5 4.7 5.1 5.9 6.4 6.7 6.8 6.6 6.6 6.4 6.0 5.8 5.9 5.7 6.2 6.3 7.3 7.3 6.9 7.0 6.6 6.0 5.9 5.6 6.0 6.2 6.3 6.2 6.5 6.0 6.1 6.2 6.3 6.5 6.9 6.9 6.7 6.6
5.1 5.0 4.9 4.8 4.4 4.2 4.2 4.4 4.5 4.4 4.7 5.1 5.6 6.0 6.4 6.7 6.9 6.6 6.4 6.2 6.0 5.9 5.6 6.0 6.0 6.2 6.8 7.0 7.0 6.5 6.0 5.7 5.7 5.9 6.3 6.0 6.3 6.5 6.2 6.3 6.2 6.2 6.6 6.6 6.4 6.5 6.2
5.0 5.0 5.0 4.9 4.6 4.3 4.3 4.4 4.6 4.5 4.8 4.9 5.6 5.6 6.1 6.4 7.0 6.9 6.8 6.4 6.2 6.0 4.7 6.2 6.1 6.0 6.4 6.7 6.8 6.2 6.1 6.2 6.2 6.0 6.3 6.3 6.4 6.3 6.3 6.5 6.4 6.5 6.5 6.6 6.6 6.4 6.3
5.2 5.1 5.1 4.9 4.7 4.5 4.3 4.4 4.6 4.6 4.7 5.0 5.3 5.7 6.1 6.4 6.8 7.0 7.0 6.5 6.5 6.3 5.1 6.0 6.0 6.0 6.3 6.6 6.5 6.7 6.4 6.5 6.4 6.2 6.4 6.2 6.3 6.3 6.2 6.4 6.3 6.5 6.3 6.3 6.2 6.3 5.3
5.3 5.2 5.1 5.1 4.8 4.5 4.4 4.4 4.4 4.5 4.8 4.8 5.1 5.5 5.9 6.3 6.7 6.9 6.8 6.6 6.5 5.6 5.7 5.7 6.0 6.0 5.9 6.5 6.5 6.7 6.7 6.7 6.6 6.2 6.5 6.1 6.2 6.3 6.3 6.4 6.3 6.3 6.4 6.0 5.8 5.7 4.8
5.4 5.2 5.1 5.1 4.9 4.6 4.7 4.4 4.4 4.5 4.6 4.7 4.9 5.4 5.5 6.0 6.5 6.8 7.0 6.9 6.6 5.9 5.8 5.6 5.7 5.8 6.0 5.9 6.4 6.2 6.4 6.3 6.4 6.5 6.3 6.4 6.2 6.2 6.2 6.2 6.3 6.3 6.4 6.2 5.6 5.1 5.1
5.5 5.3 5.2 5.2 5.1 5.0 4.7 4.6 4.5 4.4 4.6 4.7 4.8 5.1 5.1 5.8 6.3 6.8 7.1 6.9 6.0 6.0 6.1 6.0 6.0 6.1 5.9 5.9 5.9 6.1 6.3 6.2 6.5 6.7 6.8 6.5 6.3 6.3 6.4 6.3 6.4 6.2 6.2 6.1 6.0 5.6 4.9
5.4 5.3 5.2 5.2 5.1 5.2 5.3 4.8 4.9 4.8 4.5 4.7 4.8 5.1 5.3 5.8 6.0 6.5 6.8 6.6 6.3 6.2 6.2 6.1 6.1 6.3 6.1 5.9 6.3 6.4 6.1 6.3 6.4 6.5 6.6 6.5 6.5 5.9 5.9 5.9 5.8 6.0 6.4 6.2 5.8 4.9 4.8
5.4 5.4 5.2 5.0 4.9 5.1 5.4 5.3 5.1 5.2 4.7 4.5 4.7 5.2 5.5 5.5 5.9 6.3 6.4 6.4 6.4 6.4 6.4 6.3 6.1 6.3 6.4 6.3 6.1 6.1 6.2 6.4 6.3 6.0 6.2 6.2 6.3 5.6 5.6 5.6 5.8 6.0 6.0 6.0 6.0 6.0 4.7
5.5 5.4 5.1 5.0 4.8 5.0 5.0 5.0 5.0 5.2 5.0 4.8 4.8 5.1 5.3 5.6 6.1 6.2 6.1 6.2 6.5 6.4 6.5 6.3 6.3 6.2 6.3 6.4 6.3 6.1 6.2 6.3 6.5 6.3 6.4 6.5 6.1 5.6 5.4 5.9 5.7 6.0 5.9 5.9 5.8 5.4 5.6
5.4 5.2 5.1 5.0 4.8 5.0 5.1 4.9 4.8 5.0 5.1 5.0 5.1 5.4 5.3 5.4 5.7 6.2 6.3 6.3 6.2 6.4 6.5 6.5 6.3 6.3 6.2 6.3 6.5 6.4 6.3 6.3 6.4 6.2 6.4 6.3 6.1 5.9 5.8 5.7 5.7 5.3 5.5 5.4 5.4 5.4 5.6
5.4 5.1 5.2 5.2 4.8 5.0 5.0 4.9 4.9 5.0 5.0 5.0 5.1 5.1 5.0 5.3 5.4 6.0 6.1 5.8 5.9 6.1 6.3 6.3 6.5 6.4 6.4 6.3 6.4 6.6 6.5 6.6 6.4 6.3 6.2 6.2 6.2 6.5 6.5 6.7 6.6 5.9 5.9 5.7 5.4 5.4 5.8
5.5 5.4 5.2 5.2 4.8 4.9 5.0 4.9 5.0 5.0 5.1 5.1 5.2 5.1 5.2 5.3 5.2 5.5 6.1 6.0 5.8 5.7 5.9 6.1 6.3 6.5 6.4 6.4 6.4 6.4 6.4 6.5 6.6 6.4 6.3 6.1 6.4 6.5 6.6 6.5 6.4 6.2 6.0 5.9 5.4 5.6 5.5
5.5 5.5 5.1 5.1 4.7 4.9 5.0 5.0 5.1 5.2 5.1 5.1 5.1 5.3 5.2 5.4 5.4 5.9 6.1 6.2 6.1 5.8 5.8 6.0 6.3 6.3 6.3 6.4 6.5 6.4 6.3 6.3 6.4 6.5 6.4 6.3 6.2 6.3 6.4 6.3 6.1 6.1 6.1 6.1 6.0 6.1 5.8
5.4 5.3 5.3 4.9 4.7 4.8 5.1 5.0 5.2 5.2 5.2 5.3 5.3 5.4 5.4 5.4 5.4 5.6 6.1 6.5 6.3 5.4 6.0 6.2 6.3 6.5 6.5 6.4 6.5 6.5 6.3 6.3 6.2 6.3 6.3 6.1 6.1 6.1 6.0 6.3 6.1 5.3 6.9 6.8 6.8 6.7 6.9
5.3 5.2 5.2 4.8 4.7 4.7 5.1 5.4 5.3 5.3 5.2 5.2 5.4 5.4 5.6 5.7 5.5 5.5 5.6 6.1 6.2 5.8 5.2 6.1 5.9 6.3 6.9 6.4 6.3 6.3 6.4 6.3 6.2 6.2 6.2 6.2 6.2 6.1 6.0 5.9 4.4 7.0 6.9 6.9 6.5 6.8 6.6
5.1 5.2 5.1 4.8 4.7 4.8 5.1 5.4 5.3 5.2 5.2 5.3 5.3 5.4 5.3 5.9 5.6 5.4 5.6 5.9 6.1 5.6 5.2 5.2 6.2 6.1 6.6 6.8 6.5 6.3 6.2 6.3 6.3 6.2 6.2 6.2 6.2 6.0 6.0 5.5 6.3 7.2 7.1 7.0 6.9 7.1 6.9
5.3 5.2 5.2 4.7 4.7 4.9 5.4 5.4 5.3 5.2 5.1 5.4 5.4 5.4 5.6 5.8 5.8 5.7 5.7 5.2 5.3 5.1 5.0 5.5 5.9 6.9 7.0 7.0 6.8 6.3 6.3 6.3 6.3 6.0 6.0 5.9 6.0 6.0 5.7 5.6 5.3 6.6 6.8 6.6 6.7 7.1 7.1
5.2 5.2 5.0 4.6 4.6 4.9 5.4 5.4 5.3 5.3 5.1 5.4 5.3 5.3 5.8 6.6 6.5 5.9 5.1 4.7 4.3 4.3 4.7 5.5 6.4 6.8 6.9 6.9 7.0 6.6 6.4 6.5 6.5 6.1 5.9 5.8 5.7 5.8 5.9 5.8 6.0 6.7 6.6 6.5 6.5 6.9 7.0
5.0 5.2 4.9 4.7 4.7 5.2 5.4 5.4 5.4 5.4 5.4 5.7 5.3 5.2 5.6 6.3 6.6 6.1 5.2 5.2 5.2 4.7 5.1 5.9 6.2 6.8 6.7 6.9 6.8 7.0 6.8 6.7 6.6 6.5 6.5 6.2 5.8 5.6 5.8 5.7 5.8 6.6 6.4 6.5 6.7 6.6 6.8
4.9 5.0 5.0 4.6 4.8 5.5 5.7 5.6 5.5 5.5 5.9 5.9 5.5 5.3 5.2 5.6 6.1 6.1 5.3 5.0 4.9 4.2 5.1 6.0 6.3 6.3 6.6 6.7 6.7 6.9 6.9 6.8 6.7 6.5 6.7 6.4 6.2 6.3 6.4 6.5 6.6 6.5 6.4 6.5 6.5 6.6 6.6
Wind_Speed
11 13 14 16 17 17 18 17 18 19 21 21 23 25 26 24 15 8 6 6 5 5 4 4 2 2 2 1 3 9 19 18 10 10 10 4 4 4 4 4 4 1 6 10 9 5 4
10 12 14 16 16 16 17 18 19 19 20 20 22 22 23 20 15 8 7 6 8 4 4 3 3 2 2 2 2 10 18 7 3 11 10 5 6 4 5 5 7 6 2 12 13 10 7
9 11 13 15 16 16 17 18 18 17 19 19 20 20 19 20 13 8 8 7 7 5 4 4 2 3 2 4 5 10 9 3 6 3 5 7 2 3 3 5 3 2 5 6 11 11 5
8 11 13 15 16 17 17 18 18 18 17 18 18 18 17 16 14 10 7 7 6 5 3 2 2 2 3 4 7 5 3 4 7 6 4 3 1 3 2 2 5 4 3 5 9 10 4
7 9 12 14 16 17 17 17 18 17 17 16 16 16 16 15 14 12 7 6 5 6 5 2 2 1 3 8 4 3 4 4 2 2 5 5 2 3 1 5 3 4 5 6 7 12 7
7 9 11 13 15 17 17 17 18 18 16 15 15 14 16 15 14 15 10 3 4 3 3 3 2 2 3 4 3 3 3 4 1 5 6 7 4 4 2 3 12 4 2 4 5 9 9
6 8 10 12 14 16 18 18 18 18 16 15 15 13 13 14 14 15 5 3 4 3 5 3 7 2 4 7 1 5 4 2 2 3 2 1 3 13 6 4 4 6 2 4 2 4 5
5 7 10 12 14 16 17 18 18 18 18 16 14 14 12 12 13 9 3 4 1 2 2 8 6 2 0 2 2 4 5 2 1 3 3 1 7 6 8 7 5 6 6 2 2 2 3
3 6 9 11 13 15 17 18 18 18 19 17 16 13 10 9 8 3 2 3 1 2 1 2 4 3 2 3 3 2 3 1 5 4 2 4 7 10 7 4 5 3 4 3 2 2 2
2 5 8 11 13 15 17 19 19 20 20 19 17 13 10 8 3 1 1 1 3 3 2 6 1 1 1 1 3 1 3 2 4 2 6 1 6 11 8 5 4 3 2 2 2 2 3
3 4 7 10 13 15 17 20 21 22 21 22 20 14 6 1 3 2 3 4 3 3 5 7 2 3 4 2 5 4 3 1 5 6 2 3 9 11 8 5 6 5 1 6 4 1 2
3 4 7 10 12 15 18 20 22 22 23 22 21 11 1 5 1 2 6 6 3 5 3 3 3 1 3 3 2 3 2 3 4 4 2 3 2 3 3 3 2 2 5 6 4 3 2
4 4 6 10 12 15 18 20 23 24 24 25 17 5 4 6 2 4 5 3 4 6 1 4 2 0 0 3 4 1 1 3 4 2 2 3 2 1 2 5 4 3 6 2 1 1 5
5 4 5 9 12 15 18 21 23 25 27 26 17 4 5 3 5 6 2 4 8 3 3 4 2 2 2 2 2 5 6 3 4 4 2 3 4 4 0 2 5 3 6 4 5 4 4
6 4 5 8 12 15 19 21 23 26 26 22 4 2 2 2 8 3 3 6 5 5 3 4 5 3 2 1 3 1 1 4 5 5 4 4 1 2 1 1 2 4 3 4 5 3 3
7 4 5 8 11 15 18 21 24 26 25 15 2 2 2 3 8 3 4 2 1 4 2 1 2 2 2 3 1 2 3 4 3 6 2 5 4 2 4 1 1 1 4 2 2 1 4
8 4 4 6 10 14 17 20 24 27 27 7 3 3 2 3 3 3 3 4 4 5 4 2 2 3 3 4 5 5 5 2 5 6 3 5 3 3 4 6 7 4 4 2 1 4 5
9 6 2 4 9 13 17 21 24 26 25 6 2 3 2 2 3 1 1 4 2 3 3 3 2 3 3 1 3 6 7 3 6 7 6 4 3 4 5 1 4 6 7 7 4 5 2
11 7 3 2 7 12 18 21 24 26 20 1 2 1 2 2 2 3 5 4 3 3 3 1 2 2 1 3 2 4 4 4 5 6 6 5 1 3 1 3 4 7 9 8 2 1 6
12 9 5 1 6 11 16 21 24 27 17 3 3 2 4 3 1 1 4 4 3 3 4 3 3 2 1 2 3 3 3 4 4 6 7 9 4 5 6 3 4 5 10 17 12 4 3
14 10 6 1 6 10 14 18 23 26 15 3 4 0 2 2 3 4 3 3 3 3 3 3 2 3 1 2 2 3 3 1 3 6 5 5 5 4 5 6 5 5 7 16 21 18 8
15 12 8 3 5 7 11 15 21 25 8 4 2 3 3 2 2 3 2 1 3 4 3 3 4 5 2 5 5 4 5 3 5 2 6 1 2 3 3 4 6 5 7 10 17 15 14
16 13 11 6 4 5 8 13 19 24 9 3 1 1 3 2 2 1 2 1 4 7 6 6 6 6 4 6 4 2 4 3 3 7 6 6 5 3 4 3 2 6 15 14 7 9 11
18 14 13 9 6 4 6 9 14 17 11 3 2 2 3 3 1 3 0 2 6 5 5 10 12 5 5 3 3 3 3 6 5 6 4 6 6 3 2 2 2 7 3 7 16 16 13
19 16 13 11 8 6 3 6 9 11 9 3 2 3 2 3 2 5 2 5 7 6 5 8 11 6 6 1 3 3 1 2 5 7 7 5 5 3 3 3 7 6 2 5 6 6 15
21 18 15 13 11 10 6 5 4 5 6 3 2 2 3 2 3 1 3 2 3 4 6 5 6 8 4 3 4 6 5 5 4 2 2 3 2 4 3 2 5 4 3 4 3 5 4
23 20 18 15 13 12 10 7 5 3 4 3 1 3 3 1 3 2 3 2 3 2 3 5 6 7 4 4 4 4 5 6 5 7 5 3 2 7 5 3 7 7 5 4 2 5 4
23 21 18 18 15 13 11 10 8 6 5 4 2 6 3 2 4 3 3 3 3 1 2 5 7 1 3 4 2 3 3 6 4 5 7 6 7 4 3 4 8 5 3 5 5 3 3
24 22 21 21 18 16 17 15 12 10 9 7 1 3 5 2 5 6 10 14 13 9 5 4 4 4 2 3 5 3 3 2 6 4 1 3 6 5 7 6 4 4 5 3 3 2 2
Wind_Direction
7 11 6 5 6 3 0 355 354 353 352 354 359 3 357 3 16 15 15 13 45 64 45 28 59 72 101 107 262 325 326 307 259 160 187 165 135 175 164 178 152 83 166 185 122 155 226
5 5 1 4 7 3 359 357 355 352 351 359 1 7 7 13 18 25 19 15 7 40 56 36 47 75 70 77 99 4 309 352 10 151 178 158 178 204 131 171 176 181 130 135 146 192 187
3 358 357 3 4 4 357 358 353 355 353 2 1 4 12 17 32 25 22 16 358 358 8 37 38 350 63 215 117 278 284 32 10 144 177 165 240 175 146 123 144 33 105 138 173 168 176
358 355 357 0 2 3 357 356 355 352 359 1 359 0 2 10 17 18 10 10 352 329 327 349 78 54 256 258 277 279 326 343 41 24 146 197 294 171 149 108 59 113 101 149 201 151 166
352 351 355 356 360 359 358 354 354 351 0 355 357 356 351 357 357 353 340 339 336 316 304 334 9 95 334 326 31 345 3 95 22 47 108 228 152 173 92 117 107 237 180 169 160 189 154
351 346 352 353 357 356 356 353 352 349 354 355 352 352 346 346 348 346 327 328 343 5 318 259 256 13 358 328 331 348 355 81 146 157 133 168 159 132 60 160 192 138 70 135 180 186 195
342 342 349 350 353 352 354 350 350 345 348 351 347 345 342 340 339 348 3 37 25 358 39 39 308 279 329 312 271 18 359 87 313 89 156 173 140 187 154 145 138 123 108 136 207 160 166
332 339 343 347 347 349 351 348 346 344 343 346 340 342 336 335 338 346 81 92 131 190 25 3 354 78 91 327 61 4 6 71 182 113 124 165 186 160 146 133 134 145 174 230 281 154 160
327 332 338 341 341 346 347 346 345 344 338 341 334 332 328 327 339 38 91 135 82 153 74 331 304 323 334 11 63 11 5 264 73 132 321 168 148 143 139 149 112 90 161 187 151 24 96
306 321 330 336 336 342 343 344 344 341 338 336 331 329 323 328 76 186 80 151 96 93 73 9 59 306 278 46 52 357 13 33 82 148 355 67 153 141 146 173 117 111 213 210 243 113 217
277 311 322 332 332 337 342 343 344 342 339 336 332 327 312 315 168 132 187 156 106 64 57 323 337 129 151 321 163 20 22 319 109 123 160 255 158 144 160 175 151 184 165 170 192 198 136
252 298 321 328 328 335 344 343 342 342 338 338 332 324 237 84 93 242 123 97 60 45 25 358 291 329 156 178 105 110 44 37 50 44 43 29 53 54 136 82 95 117 88 43 54 75 294
237 286 319 323 330 337 342 344 341 340 338 336 331 300 175 150 182 148 114 62 34 72 345 321 43 356 22 129 115 74 126 159 128 184 177 69 35 30 107 89 28 97 92 146 185 211 232
228 279 311 324 333 339 344 344 342 341 338 336 329 183 187 195 175 135 80 50 63 250 259 295 227 216 80 144 89 146 171 160 219 170 128 138 165 173 147 142 162 137 159 165 197 196 225
216 258 307 327 339 342 344 343 343 342 340 341 339 11 79 274 159 81 82 49 186 201 237 315 320 189 118 240 121 294 151 189 216 201 139 133 57 121 91 80 101 176 164 144 95 36 43
210 244 307 334 346 348 344 344 347 344 344 342 84 52 357 105 141 74 80 148 169 192 218 241 332 299 133 155 99 159 174 208 225 184 186 197 102 199 122 93 42 154 156 115 33 188 243
206 226 301 338 352 351 344 346 349 346 348 345 61 59 291 85 73 48 102 215 257 226 183 214 287 298 320 174 188 199 201 227 181 168 136 147 109 142 113 211 183 150 174 167 133 182 203
199 211 263 341 354 351 344 351 351 353 348 35 85 53 343 26 43 34 124 199 239 261 151 250 222 239 265 281 178 211 203 238 180 146 159 194 126 175 196 215 207 229 192 197 176 216 237
198 207 215 352 359 353 350 352 353 358 359 99 76 253 18 66 76 318 296 264 213 224 200 203 252 213 284 277 268 195 188 199 157 160 161 167 195 136 121 345 244 221 210 204 170 23 209
193 203 198 351 16 2 356 353 355 1 6 69 76 38 331 44 9 287 352 305 310 240 247 212 235 226 287 269 244 254 208 200 178 171 159 159 174 187 197 198 135 208 208 209 207 192 194
191 197 189 173 41 9 359 358 0 1 17 88 27 27 179 314 342 349 310 287 304 289 237 186 309 210 124 263 283 239 241 236 216 171 139 154 208 186 247 231 188 209 209 207 221 228 219
189 192 183 169 69 23 3 4 9 6 41 80 74 36 4 277 313 315 329 2 288 310 260 234 186 281 236 221 214 244 187 212 211 211 153 113 211 107 291 255 233 259 242 214 217 228 245
187 191 183 161 111 47 19 14 18 16 52 91 346 24 96 293 350 323 237 263 289 353 287 261 33 346 288 249 239 232 200 247 245 165 181 149 137 109 257 345 343 304 241 220 214 211 211
181 186 181 159 144 95 42 31 33 32 57 114 135 99 72 285 246 223 198 292 275 267 282 299 310 257 256 328 312 251 223 240 190 226 160 148 132 126 199 47 284 237 203 213 224 238 217
183 186 176 165 163 144 99 65 48 44 49 87 133 110 116 280 250 299 258 255 289 284 267 259 267 258 310 45 267 231 249 245 237 208 190 169 138 146 165 204 290 287 192 176 178 267 217
187 189 182 171 179 169 171 118 88 66 69 88 94 124 104 98 242 273 266 312 315 309 307 282 330 316 241 165 204 191 199 190 215 167 124 152 162 146 145 193 244 246 309 170 166 294 294
186 190 186 176 188 186 184 167 158 127 107 91 124 130 95 200 271 200 243 275 285 277 263 307 338 318 262 189 234 171 211 179 180 173 174 156 187 196 200 227 277 244 244 160 108 250 327
186 192 187 180 188 196 200 193 187 172 159 117 242 176 129 230 262 222 269 246 271 184 212 315 328 124 280 238 206 187 181 204 158 193 174 160 178 177 156 210 262 188 101 170 220 283 310
188 195 193 182 186 204 210 207 199 192 188 168 231 203 186 220 250 201 240 244 234 225 264 204 267 337 299 317 24 330 245 167 155 212 123 183 185 181 180 208 220 210 213 246 191 227 323